EW3591 Weather Reports


Display with metric or nautical units.
time (UTC)temp
F
wind
direction
speed
MPH
gust
MPH
rain 1hr
in
rain 24hr
in
rain mn
in
humidity
%
barometer
mb
20260510020948 52 232 0.0 4.0 0.00 0.24 0.24 95 1005.9
20260510020748 52 241 1.0 4.0 0.00 0.24 0.24 95 1005.8
20260510020548 52 267 1.0 4.0 0.00 0.24 0.24 94 1005.8
20260510020348 52 268 1.0 4.0 0.00 0.24 0.24 95 1005.7
20260510020147 52 246 1.0 4.0 0.00 0.24 0.24 94 1005.7
20260510015947 52 236 0.0 3.0 0.00 0.24 0.24 94 1005.7
20260510015747 52 235 0.0 3.0 0.00 0.24 0.24 94 1005.7
20260510015546 52 234 1.0 3.0 0.00 0.24 0.24 94 1005.7
20260510015346 52 224 1.0 3.0 0.00 0.24 0.24 94 1005.7
20260510015146 52 219 1.0 4.0 0.00 0.24 0.24 94 1005.7
20260510014946 52 219 1.0 4.0 0.00 0.24 0.24 94 1005.7
20260510014745 52 219 0.0 4.0 0.00 0.24 0.24 94 1005.6
20260510014545 52 219 1.0 4.0 0.00 0.24 0.24 94 1005.5
20260510014345 52 252 1.0 4.0 0.00 0.24 0.24 94 1005.5
20260510014144 52 277 0.0 3.0 0.00 0.24 0.24 94 1005.4
20260510013944 52 282 0.0 3.0 0.00 0.24 0.24 94 1005.4
20260510013744 52 260 1.0 3.0 0.00 0.24 0.24 94 1005.4
20260510013543 52 156 0.0 3.0 0.00 0.24 0.24 94 1005.3
20260510013343 52 217 0.0 4.0 0.00 0.24 0.24 93 1005.2
20260510013143 52 217 1.0 4.0 0.00 0.24 0.24 93 1005.1
20260510012942 52 217 1.0 4.0 0.00 0.24 0.24 93 1005.1
20260510012742 52 217 1.0 4.0 0.00 0.24 0.24 93 1005.0
20260510012542 52 217 0.0 4.0 0.00 0.24 0.24 93 1005.0
20260510012342 52 217 0.0 2.0 0.00 0.24 0.24 93 1005.0
20260510012141 53 217 0.0 2.0 0.00 0.24 0.24 93 1005.0
20260510011941 53 217 0.0 4.0 0.00 0.24 0.24 92 1005.0
20260510011741 53 217 0.0 6.0 0.00 0.24 0.24 92 1004.9
20260510011540 53 217 0.0 6.0 0.00 0.24 0.24 92 1004.8
20260510011340 53 217 1.0 6.0 0.00 0.24 0.24 92 1004.8
20260510011140 53 207 1.0 6.0 0.00 0.24 0.24 92 1004.7
20260510010939 53 211 1.0 6.0 0.00 0.24 0.24 92 1004.6
20260510010739 53 203 2.0 6.0 0.00 0.24 0.24 92 1004.6
20260510010539 53 201 2.0 4.0 0.00 0.24 0.24 92 1004.6
20260510010339 53 201 1.0 4.0 0.00 0.24 0.24 92 1004.6
20260510010138 53 200 1.0 5.0 0.00 0.24 0.24 91 1004.5
20260510005938 53 200 1.0 5.0 0.00 0.24 0.24 91 1004.5
20260510005738 53 200 1.0 5.0 0.00 0.24 0.24 91 1004.4
20260510005537 53 207 1.0 5.0 0.00 0.24 0.24 91 1004.4
20260510005337 54 214 1.0 5.0 0.00 0.24 0.24 91 1004.4
20260510005137 54 211 2.0 5.0 0.00 0.24 0.24 91 1004.3
20260510004936 54 233 2.0 5.0 0.00 0.24 0.24 91 1004.3
20260510004736 54 236 1.0 6.0 0.00 0.24 0.24 91 1004.3
20260510004536 54 236 1.0 7.0 0.00 0.24 0.24 91 1004.1
20260510004336 54 246 1.0 7.0 0.00 0.24 0.24 91 1004.1
20260510004135 54 210 2.0 7.0 0.00 0.24 0.24 91 1004.0
20260510003935 54 187 3.0 7.0 0.00 0.24 0.24 91 1004.0
20260510003735 54 226 3.0 7.0 0.00 0.24 0.24 91 1004.0
20260510003534 54 229 2.0 6.0 0.00 0.24 0.24 90 1004.0
20260510003334 54 198 3.0 6.0 0.00 0.24 0.24 90 1004.0
20260510003134 54 222 2.0 6.0 0.00 0.24 0.24 90 1004.0
20260510002933 54 207 2.0 6.0 0.00 0.24 0.24 90 1004.0
20260510002733 54 197 2.0 6.0 0.00 0.24 0.24 90 1004.1
20260510002533 54 193 2.0 6.0 0.00 0.24 0.24 90 1004.0
20260510002333 54 206 1.0 6.0 0.00 0.24 0.24 90 1004.0
20260510002132 54 213 2.0 6.0 0.00 0.24 0.24 90 1004.0
20260510001932 54 217 2.0 6.0 0.00 0.24 0.24 90 1004.0
20260510001732 54 168 1.0 6.0 0.00 0.24 0.24 90 1003.9
20260510001531 54 178 1.0 6.0 0.00 0.24 0.24 90 1004.0
20260510001331 54 245 2.0 6.0 0.00 0.24 0.24 90 1004.0
20260510001131 54 212 2.0 6.0 0.00 0.24 0.24 89 1003.9
20260510000930 54 241 2.0 6.0 0.00 0.24 0.24 89 1003.9
20260510000730 54 279 1.0 6.0 0.00 0.24 0.24 90 1003.8
20260510000530 54 271 1.0 6.0 0.00 0.24 0.24 90 1003.9
20260510000330 54 139 1.0 6.0 0.00 0.24 0.24 90 1003.9
20260510000129 54 192 1.0 6.0 0.00 0.24 0.24 90 1003.8
20260509235929 54 185 1.0 5.0 0.00 0.24 0.24 89 1003.7
20260509235729 54 233 1.0 5.0 0.00 0.24 0.24 89 1003.7
20260509235528 54 203 1.0 6.0 0.00 0.24 0.24 89 1003.6
20260509235328 54 173 1.0 7.0 0.00 0.24 0.24 89 1003.6
20260509235128 54 286 1.0 7.0 0.00 0.24 0.24 89 1003.6
20260509234927 54 246 1.0 7.0 0.00 0.24 0.24 89 1003.5
20260509234727 54 211 3.0 9.0 0.00 0.24 0.24 89 1003.5
20260509234527 54 235 3.0 9.0 0.00 0.24 0.24 89 1003.5
20260509234327 54 255 2.0 9.0 0.00 0.24 0.24 89 1003.4
20260509234126 54 220 4.0 9.0 0.00 0.24 0.24 89 1003.5
20260509233926 54 208 5.0 9.0 0.01 0.24 0.24 89 1003.5
20260509233726 54 199 3.0 10.0 0.01 0.24 0.24 89 1003.6
20260509233525 54 140 2.0 10.0 0.01 0.24 0.24 88 1003.6
20260509233325 54 153 3.0 10.0 0.01 0.24 0.24 88 1003.4
20260509233125 54 193 4.0 10.0 0.01 0.24 0.24 88 1003.2
20260509232924 54 206 4.0 10.0 0.01 0.24 0.24 88 1003.2
20260509232724 54 216 4.0 8.0 0.01 0.24 0.24 88 1003.2
20260509232524 54 237 4.0 12.0 0.01 0.24 0.24 88 1003.2
20260509232324 55 213 4.0 12.0 0.01 0.24 0.24 88 1003.1
20260509232123 54 210 4.0 12.0 0.01 0.24 0.24 88 1003.0
20260509231923 55 230 4.0 13.0 0.01 0.24 0.24 87 1003.2
20260509231723 55 227 5.0 14.0 0.01 0.24 0.24 87 1003.1
20260509231522 54 206 5.0 14.0 0.01 0.24 0.24 87 1003.0
20260509231322 54 201 7.0 14.0 0.01 0.24 0.24 87 1003.0
20260509231122 54 211 6.0 14.0 0.01 0.24 0.24 87 1003.0
20260509230921 54 215 5.0 13.0 0.01 0.24 0.24 87 1003.1
20260509230721 54 225 5.0 13.0 0.01 0.24 0.24 88 1003.0
20260509230521 54 218 7.0 15.0 0.01 0.24 0.24 87 1003.0
20260509230321 54 218 6.0 15.0 0.01 0.24 0.24 87 1003.0
20260509230120 54 220 5.0 15.0 0.01 0.24 0.24 87 1003.0
20260509225920 54 216 7.0 15.0 0.01 0.24 0.24 87 1003.0
20260509225720 54 216 7.0 15.0 0.02 0.24 0.24 87 1003.0
20260509225519 54 215 7.0 15.0 0.03 0.24 0.24 87 1003.1
20260509225319 54 223 7.0 18.0 0.04 0.24 0.24 87 1003.0
20260509223918 54 215 5.0 15.0 0.19 0.23 0.23 90 1002.8
20260509223718 54 215 7.0 15.0 0.21 0.23 0.23 90 1002.9
20260509223517 53 216 6.0 15.0 0.21 0.23 0.23 91 1002.9
20260509223317 53 222 5.0 15.0 0.22 0.23 0.23 92 1002.9
20260509223048 53 211 6.0 15.0 0.22 0.23 0.23 93 1003.0
20260509222848 52 210 6.0 15.0 0.23 0.23 0.23 93 1003.0
20260509222648 52 210 6.0 15.0 0.23 0.23 0.23 92 1003.1
20260509222347 51 213 7.0 15.0 0.23 0.23 0.23 92 1003.3
20260509222147 51 220 6.0 15.0 0.23 0.23 0.23 92 1003.3
20260509221947 51 220 6.0 19.0 0.23 0.23 0.23 92 1003.2
20260509221746 52 215 7.0 19.0 0.23 0.23 0.23 92 1003.1
20260509221546 52 214 9.0 19.0 0.23 0.23 0.23 92 1003.4
20260509221346 52 211 9.0 19.0 0.23 0.23 0.23 92 1003.6
20260509221145 52 213 9.0 19.0 0.23 0.23 0.23 91 1003.6
20260509220945 52 224 8.0 19.0 0.23 0.23 0.23 91 1003.6
20260509220745 52 224 6.0 18.0 0.23 0.23 0.23 91 1003.4
20260509220545 52 218 7.0 19.0 0.23 0.23 0.23 92 1003.4
20260509220345 52 217 6.0 19.0 0.23 0.23 0.23 92 1003.0
20260509220144 52 227 5.0 21.0 0.23 0.23 0.23 92 1003.6
20260509215944 52 227 5.0 21.0 0.23 0.23 0.23 91 1003.7
20260509215743 53 211 6.0 21.0 0.22 0.22 0.22 91 1003.9
20260509215543 53 194 7.0 21.0 0.21 0.21 0.21 91 1004.0
20260509215343 53 184 7.0 21.0 0.19 0.19 0.19 91 1004.2
20260509215142 53 152 4.0 24.0 0.19 0.19 0.19 90 1004.2
20260509214942 53 193 6.0 25.0 0.17 0.17 0.17 86 1004.3
20260509214742 54 231 6.0 25.0 0.16 0.16 0.16 84 1004.1
20260509214542 55 239 8.0 25.0 0.15 0.15 0.15 82 1004.2
20260509214341 57 190 10.0 25.0 0.12 0.12 0.12 82 1004.3
20260509214141 58 197 10.0 22.0 0.06 0.06 0.06 82 1004.1
20260509213941 59 208 11.0 22.0 0.04 0.04 0.04 80 1004.0
20260509213740 59 256 8.0 22.0 0.02 0.02 0.02 78 1003.4
20260509213540 60 250 5.0 18.0 0.02 0.02 0.02 77 1003.1
20260509213340 60 197 4.0 18.0 0.01 0.01 0.01 78 1002.9
20260509213139 60 201 6.0 16.0 0.01 0.01 0.01 81 1002.6
20260509213023 60 217 7.0 16.0 0.00 0.00 0.00 81 1002.6
20260509212823 61 210 7.0 16.0 0.00 0.00 0.00 80 1002.8
20260509212640 61 209 7.0 15.0 0.00 0.00 0.00 79 1002.3
20260509212440 61 211 6.0 15.0 0.00 0.00 0.00 78 1002.4
20260509212240 61 196 6.0 15.0 0.00 0.00 0.00 78 1002.4
20260509212039 61 213 5.0 15.0 0.00 0.00 0.00 78 1002.4
20260509211839 61 212 6.0 15.0 0.00 0.00 0.00 77 1002.3
20260509211639 61 214 7.0 15.0 0.00 0.00 0.00 77 1002.4
20260509211508 61 219 8.0 15.0 0.00 0.00 0.00 77 1002.3
20260509211307 61 215 7.0 15.0 0.00 0.00 0.00 77 1002.3
20260509211107 61 218 7.0 14.0 0.00 0.00 0.00 77 1002.3
20260509210907 61 210 7.0 16.0 0.00 0.00 0.00 76 1002.3
20260509210707 61 205 7.0 17.0 0.00 0.00 0.00 76 1002.2
20260509210506 61 220 6.0 17.0 0.00 0.00 0.00 76 1002.4
20260509210306 62 218 7.0 17.0 0.00 0.00 0.00 76 1002.2
20260509210106 62 221 7.0 18.0 0.00 0.00 0.00 76 1002.2
20260509205905 62 224 6.0 27.0 0.00 0.00 0.00 76 1002.2
20260509205705 62 219 6.0 27.0 0.00 0.00 0.00 76 1002.2
20260509205505 62 214 9.0 27.0 0.00 0.00 0.00 75 1002.1
20260509205307 62 199 9.0 27.0 0.00 0.00 0.00 75 1002.0
20260509205104 62 212 8.0 27.0 0.00 0.00 0.00 75 1002.0
20260509204904 62 219 8.0 20.0 0.00 0.00 0.00 75 1001.9
20260509204704 62 215 9.0 20.0 0.00 0.00 0.00 74 1001.8
20260509204503 62 220 9.0 20.0 0.00 0.00 0.00 74 1001.8
20260509204303 62 216 7.0 19.0 0.00 0.00 0.00 73 1001.9
20260509204103 62 212 7.0 16.0 0.00 0.00 0.00 73 1001.9
20260509203902 62 210 7.0 20.0 0.00 0.00 0.00 73 1001.9
20260509203702 62 218 8.0 20.0 0.00 0.00 0.00 73 1001.9
20260509203502 62 209 8.0 20.0 0.00 0.00 0.00 73 1001.9
20260509203301 62 214 9.0 21.0 0.00 0.00 0.00 73 1001.9
20260509203101 63 227 8.0 22.0 0.00 0.00 0.00 73 1001.9
20260509202901 63 218 10.0 22.0 0.00 0.00 0.00 73 1002.0
20260509202701 63 206 11.0 22.0 0.00 0.00 0.00 73 1002.1
20260509202500 63 213 11.0 22.0 0.00 0.00 0.00 73 1002.2
20260509202300 63 214 8.0 22.0 0.00 0.00 0.00 73 1002.2
20260509202100 63 202 9.0 22.0 0.00 0.00 0.00 73 1002.3
20260509201859 63 210 10.0 22.0 0.00 0.00 0.00 73 1002.3
20260509201659 63 214 10.0 20.0 0.00 0.00 0.00 73 1002.3
20260509201459 63 215 8.0 18.0 0.00 0.00 0.00 73 1002.2
20260509201258 63 225 9.0 18.0 0.00 0.00 0.00 74 1002.2
20260509201058 63 219 8.0 18.0 0.00 0.00 0.00 74 1002.2
20260509200858 64 217 6.0 18.0 0.00 0.00 0.00 75 1002.2
20260509200658 63 220 9.0 20.0 0.00 0.00 0.00 74 1002.2
20260509200457 64 212 9.0 20.0 0.00 0.00 0.00 74 1002.2
20260509200257 64 224 6.0 20.0 0.00 0.00 0.00 74 1002.2
20260509200057 64 219 9.0 20.0 0.00 0.00 0.00 74 1002.3
20260509195856 64 226 9.0 20.0 0.00 0.00 0.00 73 1002.3
20260509195656 64 217 8.0 20.0 0.00 0.00 0.00 72 1002.2
20260509195456 64 211 9.0 19.0 0.00 0.00 0.00 71 1002.1
20260509195255 64 221 7.0 19.0 0.00 0.00 0.00 71 1002.1
20260509195055 64 222 7.0 19.0 0.00 0.00 0.00 72 1002.1
20260509194855 63 211 11.0 19.0 0.00 0.00 0.00 72 1002.1
20260509194655 63 216 8.0 19.0 0.00 0.00 0.00 72 1002.2
20260509194454 62 224 7.0 16.0 0.00 0.00 0.00 73 1002.3
20260509194254 62 211 8.0 17.0 0.00 0.00 0.00 74 1002.4
20260509194054 62 208 7.0 17.0 0.00 0.00 0.00 74 1002.6
20260509193853 62 199 6.0 17.0 0.00 0.00 0.00 75 1002.7
20260509193653 62 202 7.0 17.0 0.00 0.00 0.00 75 1003.0
20260509193453 62 214 7.0 17.0 0.00 0.00 0.00 75 1003.2
20260509193252 62 219 6.0 17.0 0.00 0.00 0.00 75 1003.3
20260509193052 63 215 6.0 17.0 0.00 0.00 0.00 75 1003.3
20260509192852 63 207 8.0 17.0 0.00 0.00 0.00 74 1003.3
20260509192652 63 218 9.0 17.0 0.00 0.00 0.00 74 1003.4
20260509192451 63 217 7.0 14.0 0.00 0.00 0.00 74 1003.3
20260509192251 63 213 6.0 14.0 0.00 0.00 0.00 74 1003.4
20260509192051 63 216 7.0 14.0 0.00 0.00 0.00 74 1003.1
20260509191850 63 216 8.0 14.0 0.00 0.00 0.00 73 1002.9
20260509191650 63 219 9.0 14.0 0.00 0.00 0.00 73 1002.9
20260509191450 64 216 8.0 14.0 0.00 0.00 0.00 73 1003.0
20260509191249 64 210 5.0 14.0 0.00 0.00 0.00 72 1003.1
20260509191049 64 216 6.0 14.0 0.00 0.00 0.00 73 1003.2
20260509190849 64 214 8.0 19.0 0.00 0.00 0.00 72 1003.2
20260509190649 64 217 7.0 19.0 0.00 0.00 0.00 72 1003.2
20260509190448 64 228 7.0 19.0 0.00 0.00 0.00 72 1003.1
20260509190248 64 222 9.0 22.0 0.00 0.00 0.00 71 1003.1
20260509190048 64 220 8.0 22.0 0.00 0.00 0.00 71 1003.0
20260509185847 65 219 8.0 22.0 0.00 0.00 0.00 71 1003.0
20260509185647 65 221 8.0 22.0 0.00 0.00 0.00 71 1002.8
20260509185447 64 218 9.0 22.0 0.00 0.00 0.00 71 1002.9
20260509185246 64 217 10.0 20.0 0.00 0.00 0.00 70 1002.9
20260509185046 65 219 11.0 20.0 0.00 0.00 0.00 69 1002.9
20260509184846 65 219 7.0 18.0 0.00 0.00 0.00 69 1002.9
20260509184645 66 222 8.0 18.0 0.00 0.00 0.00 70 1002.7
20260509184445 66 219 10.0 21.0 0.00 0.00 0.00 69 1002.9
20260509184245 66 219 10.0 21.0 0.00 0.00 0.00 68 1002.9
20260509184045 67 227 6.0 21.0 0.00 0.00 0.00 69 1002.9
20260509183844 66 230 7.0 21.0 0.00 0.00 0.00 70 1002.7
20260509183644 66 213 8.0 21.0 0.00 0.00 0.00 71 1002.9
20260509183444 66 216 9.0 16.0 0.00 0.00 0.00 70 1002.9
20260509183243 65 219 10.0 21.0 0.00 0.00 0.00 70 1003.0
20260509183043 65 228 7.0 22.0 0.00 0.00 0.00 70 1003.0
20260509182843 65 218 7.0 22.0 0.00 0.00 0.00 71 1003.1
20260509182643 65 219 8.0 22.0 0.00 0.00 0.00 71 1003.0
20260509182442 65 219 10.0 22.0 0.00 0.00 0.00 71 1003.0
20260509182242 65 214 9.0 22.0 0.00 0.00 0.00 70 1003.0
20260509182042 65 209 9.0 16.0 0.00 0.00 0.00 70 1003.2
20260509181841 65 215 8.0 19.0 0.00 0.00 0.00 69 1003.2
20260509181641 66 229 6.0 19.0 0.00 0.00 0.00 70 1003.2
20260509181441 66 223 7.0 19.0 0.00 0.00 0.00 69 1003.3
20260509181240 65 208 10.0 19.0 0.00 0.00 0.00 70 1003.3
20260509181040 65 205 11.0 19.0 0.00 0.00 0.00 69 1003.3
20260509180840 65 217 8.0 17.0 0.00 0.00 0.00 69 1003.3
20260509180640 65 214 8.0 19.0 0.00 0.00 0.00 71 1003.2
20260509180439 65 204 9.0 19.0 0.00 0.00 0.00 70 1003.3
20260509180239 65 200 8.0 19.0 0.00 0.00 0.00 70 1003.4
20260509180039 65 202 9.0 19.0 0.00 0.00 0.00 70 1003.4
20260509175838 65 215 9.0 19.0 0.00 0.00 0.00 70 1003.5
20260509175638 65 219 8.0 19.0 0.00 0.00 0.00 72 1003.4
20260509175438 64 222 8.0 19.0 0.00 0.00 0.00 72 1003.4
20260509175237 64 213 7.0 19.0 0.00 0.00 0.00 72 1003.4
20260509175037 64 226 6.0 19.0 0.00 0.00 0.00 73 1003.5
20260509174837 64 224 8.0 19.0 0.00 0.00 0.00 73 1003.5
20260509174636 64 229 8.0 19.0 0.00 0.00 0.00 72 1003.6
20260509174436 64 235 5.0 13.0 0.00 0.00 0.00 72 1003.5
20260509174236 64 218 6.0 15.0 0.00 0.00 0.00 72 1003.7
20260509174036 64 215 7.0 15.0 0.00 0.00 0.00 72 1003.7
20260509173835 64 208 7.0 16.0 0.00 0.00 0.00 71 1003.7
20260509173635 64 214 8.0 18.0 0.00 0.00 0.00 71 1003.7
20260509173435 64 251 5.0 18.0 0.00 0.00 0.00 70 1003.8
20260509173234 64 238 6.0 18.0 0.00 0.00 0.00 71 1003.7
20260509173034 65 226 8.0 18.0 0.00 0.00 0.00 70 1003.8
20260509172834 65 221 7.0 18.0 0.00 0.00 0.00 69 1003.8
20260509172634 66 222 6.0 15.0 0.00 0.00 0.00 68 1003.8
20260509172433 66 219 6.0 18.0 0.00 0.00 0.00 69 1003.9
20260509172233 66 232 5.0 19.0 0.00 0.00 0.00 69 1003.9
20260509172033 66 241 5.0 19.0 0.00 0.00 0.00 70 1004.0
20260509171832 65 211 10.0 19.0 0.00 0.00 0.00 70 1004.0
20260509171632 65 213 10.0 19.0 0.00 0.00 0.00 69 1004.1
20260509171432 66 222 7.0 19.0 0.00 0.00 0.00 70 1004.1
20260509171231 65 223 7.0 18.0 0.00 0.00 0.00 71 1004.1
20260509171031 65 219 9.0 18.0 0.00 0.00 0.00 71 1004.1
20260509170831 65 234 7.0 18.0 0.00 0.00 0.00 71 1004.1
20260509170630 64 248 7.0 18.0 0.00 0.00 0.00 71 1004.1
20260509170430 64 226 9.0 18.0 0.00 0.00 0.00 70 1004.2
20260509170230 64 216 8.0 18.0 0.00 0.00 0.00 71 1004.4
20260509170030 64 220 7.0 18.0 0.00 0.00 0.00 71 1004.4
20260509165829 64 219 9.0 19.0 0.00 0.00 0.00 71 1004.5
20260509165629 64 223 7.0 21.0 0.00 0.00 0.00 71 1004.5
20260509165429 65 225 7.0 21.0 0.00 0.00 0.00 70 1004.6
20260509165228 65 215 8.0 21.0 0.00 0.00 0.00 70 1004.6
20260509165028 65 222 9.0 21.0 0.00 0.00 0.00 70 1004.6
20260509164828 65 222 9.0 21.0 0.00 0.00 0.00 70 1004.6
20260509164627 65 217 8.0 21.0 0.00 0.00 0.00 70 1004.4
20260509164427 65 205 9.0 19.0 0.00 0.00 0.00 71 1004.5
20260509164227 65 214 11.0 19.0 0.00 0.00 0.00 70 1004.6
20260509164027 65 220 7.0 18.0 0.00 0.00 0.00 70 1004.6
20260509163826 65 217 7.0 16.0 0.00 0.00 0.00 69 1004.5
20260509163626 65 206 7.0 16.0 0.00 0.00 0.00 70 1004.7
20260509163426 65 197 8.0 18.0 0.00 0.00 0.00 71 1004.6
20260509163225 65 208 8.0 19.0 0.00 0.00 0.00 70 1004.7
20260509163025 64 213 8.0 19.0 0.00 0.00 0.00 71 1004.7
20260509162825 64 213 8.0 19.0 0.00 0.00 0.00 72 1004.6
20260509162624 64 212 9.0 19.0 0.00 0.00 0.00 71 1004.5
20260509162424 64 213 8.0 17.0 0.00 0.00 0.00 71 1004.4
20260509162224 65 224 7.0 17.0 0.00 0.00 0.00 70 1004.4
20260509162024 65 233 6.0 17.0 0.00 0.00 0.00 70 1004.4
20260509161823 65 222 6.0 17.0 0.00 0.00 0.00 70 1004.4
20260509161623 65 212 6.0 15.0 0.00 0.00 0.00 71 1004.6
20260509161423 64 227 7.0 16.0 0.00 0.00 0.00 71 1004.7
20260509161222 64 232 6.0 16.0 0.00 0.00 0.00 71 1004.6
20260509161022 64 230 6.0 16.0 0.00 0.00 0.00 70 1004.6
20260509160822 64 218 7.0 16.0 0.00 0.00 0.00 70 1004.6
20260509160621 64 218 5.0 14.0 0.00 0.00 0.00 71 1004.7
20260509160421 64 220 6.0 14.0 0.00 0.00 0.00 71 1004.6
20260509160221 64 230 6.0 13.0 0.00 0.00 0.00 71 1004.5
20260509160021 64 213 6.0 15.0 0.00 0.00 0.00 71 1004.5
20260509155820 64 229 4.0 15.0 0.00 0.00 0.00 72 1004.6
20260509155620 63 221 4.0 15.0 0.00 0.00 0.00 73 1004.5
20260509155420 63 213 4.0 15.0 0.00 0.00 0.00 72 1004.7
20260509155219 63 213 6.0 15.0 0.00 0.00 0.00 71 1004.7
20260509155019 64 217 5.0 14.0 0.00 0.00 0.00 71 1004.8
20260509154819 64 219 5.0 14.0 0.00 0.00 0.00 73 1004.8
20260509154618 63 225 5.0 14.0 0.00 0.00 0.00 73 1004.8
20260509154419 63 227 5.0 14.0 0.00 0.00 0.00 73 1004.8
20260509154218 63 228 4.0 14.0 0.00 0.00 0.00 72 1004.9
20260509154018 63 222 5.0 14.0 0.00 0.00 0.00 72 1005.0
20260509153817 63 213 5.0 14.0 0.00 0.00 0.00 72 1005.1
20260509153617 63 214 5.0 10.0 0.00 0.00 0.00 72 1005.1
20260509153417 63 213 5.0 15.0 0.00 0.00 0.00 73 1005.2
20260509153216 63 208 3.0 15.0 0.00 0.00 0.00 73 1005.2
20260509153016 63 216 3.0 15.0 0.00 0.00 0.00 74 1005.2
20260509152816 62 217 4.0 15.0 0.00 0.00 0.00 74 1005.2
20260509152615 62 224 6.0 15.0 0.00 0.00 0.00 74 1005.3
20260509152415 62 227 6.0 14.0 0.00 0.00 0.00 75 1005.3
20260509152215 62 226 7.0 14.0 0.00 0.00 0.00 75 1005.4
20260509152015 61 221 7.0 18.0 0.00 0.00 0.00 75 1005.4
20260509151814 61 213 8.0 18.0 0.00 0.00 0.00 75 1005.4
20260509151614 61 209 7.0 18.0 0.00 0.00 0.00 76 1005.4
20260509151414 60 199 5.0 18.0 0.00 0.00 0.00 77 1005.3
20260509151213 60 218 10.0 18.0 0.00 0.00 0.00 77 1005.4
20260509151013 60 219 8.0 16.0 0.00 0.00 0.00 78 1005.3
20260509150813 60 210 8.0 14.0 0.00 0.00 0.00 77 1005.4
20260509150612 60 214 7.0 13.0 0.00 0.00 0.00 78 1005.4
20260509150412 60 211 4.0 13.0 0.00 0.00 0.00 78 1005.3
20260509150212 60 212 5.0 13.0 0.00 0.00 0.00 78 1005.3
20260509150012 60 200 7.0 13.0 0.00 0.00 0.00 78 1005.4
20260509145811 60 199 5.0 13.0 0.00 0.00 0.00 77 1005.2
20260509145611 60 204 5.0 16.0 0.00 0.00 0.00 78 1005.3
20260509145411 60 211 3.0 16.0 0.00 0.00 0.00 79 1005.2
20260509145210 60 209 6.0 16.0 0.00 0.00 0.00 80 1005.2
20260509145010 60 222 6.0 16.0 0.00 0.00 0.00 79 1005.2
20260509144810 60 208 7.0 16.0 0.00 0.00 0.00 79 1005.2
20260509144609 60 219 6.0 12.0 0.00 0.00 0.00 79 1005.2
20260509144409 60 226 5.0 13.0 0.00 0.00 0.00 81 1005.2
20260509144209 60 212 4.0 14.0 0.00 0.00 0.00 80 1005.3
20260509144008 60 224 4.0 14.0 0.00 0.00 0.00 81 1005.4
20260509143808 60 219 4.0 14.0 0.00 0.00 0.00 81 1005.4
20260509143608 59 224 5.0 15.0 0.00 0.00 0.00 81 1005.4
20260509143408 59 224 4.0 15.0 0.00 0.00 0.00 81 1005.4
20260509143207 59 219 7.0 15.0 0.00 0.00 0.00 81 1005.4
20260509143007 59 216 7.0 15.0 0.00 0.00 0.00 80 1005.5
20260509142807 60 215 6.0 15.0 0.00 0.00 0.00 80 1005.5
20260509142606 60 214 5.0 13.0 0.00 0.00 0.00 81 1005.5
20260509142406 60 219 4.0 13.0 0.00 0.00 0.00 81 1005.5
20260509142206 59 221 5.0 11.0 0.00 0.00 0.00 82 1005.5
20260509142005 59 236 4.0 12.0 0.00 0.00 0.00 82 1005.5
20260509141805 59 219 5.0 12.0 0.00 0.00 0.00 83 1005.5
20260509141605 58 211 5.0 12.0 0.00 0.00 0.00 83 1005.5
20260509141405 58 217 6.0 13.0 0.00 0.00 0.00 83 1005.5
20260509141204 58 212 5.0 13.0 0.00 0.00 0.00 84 1005.5
20260509141004 58 217 5.0 13.0 0.00 0.00 0.00 84 1005.5
20260509140804 58 206 8.0 13.0 0.00 0.00 0.00 84 1005.6
20260509140603 58 217 6.0 12.0 0.00 0.00 0.00 84 1005.5
20260509140403 58 226 5.0 12.0 0.00 0.00 0.00 85 1005.6
20260509140203 58 215 5.0 18.0 0.00 0.00 0.00 86 1005.6
20260509140003 57 215 4.0 18.0 0.00 0.00 0.00 87 1005.6
20260509135802 57 221 4.0 18.0 0.00 0.00 0.00 88 1005.7
20260509135602 56 217 6.0 18.0 0.00 0.00 0.00 88 1005.7
20260509135402 56 215 5.0 18.0 0.00 0.00 0.00 88 1005.7
20260509135201 56 224 4.0 16.0 0.00 0.00 0.00 89 1005.7
20260509135001 55 208 5.0 16.0 0.00 0.00 0.00 90 1005.7
20260509134801 55 219 5.0 16.0 0.00 0.00 0.00 90 1005.8
20260509134600 55 217 5.0 16.0 0.00 0.00 0.00 90 1005.8
20260509134400 55 220 5.0 16.0 0.00 0.00 0.00 90 1005.8
20260509134200 55 230 3.0 11.0 0.00 0.00 0.00 91 1005.9
20260509133959 54 227 2.0 14.0 0.00 0.00 0.00 92 1005.9
20260509133759 54 220 3.0 14.0 0.00 0.00 0.00 92 1006.0
20260509133559 54 228 5.0 14.0 0.00 0.00 0.00 92 1006.1
20260509133359 54 214 7.0 14.0 0.00 0.00 0.00 92 1006.0
20260509133158 54 215 6.0 14.0 0.00 0.00 0.00 92 1006.0
20260509132958 54 226 4.0 11.0 0.00 0.00 0.00 92 1006.0
20260509132758 54 219 5.0 11.0 0.00 0.00 0.00 92 1006.0
20260509132557 54 220 3.0 11.0 0.00 0.00 0.00 92 1006.1
20260509132357 54 224 4.0 10.0 0.00 0.00 0.00 92 1006.1
20260509132157 53 224 4.0 10.0 0.00 0.00 0.00 92 1006.1
20260509131956 53 229 3.0 11.0 0.00 0.00 0.00 92 1006.0
20260509131756 53 222 4.0 11.0 0.00 0.00 0.00 92 1006.0
20260509131556 53 207 4.0 12.0 0.00 0.00 0.00 93 1006.0
20260509131356 53 214 5.0 12.0 0.00 0.00 0.00 93 1006.1
20260509131155 53 219 4.0 12.0 0.00 0.00 0.00 93 1006.1
20260509130955 53 217 4.0 12.0 0.00 0.00 0.00 93 1006.1
20260509130755 53 223 4.0 12.0 0.00 0.00 0.00 93 1006.1
20260509130554 53 220 5.0 12.0 0.00 0.00 0.00 93 1006.1
20260509130354 53 214 5.0 10.0 0.00 0.00 0.00 93 1006.1
20260509130154 53 216 2.0 12.0 0.00 0.00 0.00 94 1006.2
20260509125953 53 217 3.0 12.0 0.00 0.00 0.00 94 1006.1
20260509125753 53 213 4.0 12.0 0.00 0.00 0.00 94 1006.1
20260509125553 52 216 3.0 12.0 0.00 0.00 0.00 94 1006.1
20260509125353 52 228 4.0 12.0 0.00 0.00 0.00 94 1006.1
20260509125152 52 220 4.0 12.0 0.00 0.00 0.00 94 1006.2
20260509124952 52 197 3.0 7.0 0.00 0.00 0.00 94 1006.2
20260509124752 52 223 3.0 7.0 0.00 0.00 0.00 94 1006.3
20260509124551 52 248 2.0 7.0 0.00 0.00 0.00 94 1006.4
20260509124351 52 207 2.0 7.0 0.00 0.00 0.00 94 1006.4
20260509124151 52 214 2.0 7.0 0.00 0.00 0.00 94 1006.4
20260509123950 52 208 2.0 7.0 0.00 0.00 0.00 94 1006.3
20260509123750 52 207 3.0 7.0 0.00 0.00 0.00 94 1006.3
20260509123550 52 218 3.0 10.0 0.00 0.00 0.00 94 1006.3
20260509123350 52 212 2.0 11.0 0.00 0.00 0.00 94 1006.2
20260509123149 52 206 1.0 11.0 0.00 0.00 0.00 94 1006.2
20260509122949 52 222 1.0 11.0 0.00 0.00 0.00 94 1006.2
20260509122749 52 189 2.0 11.0 0.00 0.00 0.00 94 1006.1
20260509122548 52 250 2.0 11.0 0.00 0.00 0.00 94 1006.0
20260509122348 52 215 4.0 9.0 0.00 0.00 0.00 94 1006.1
20260509122148 52 214 4.0 9.0 0.00 0.00 0.00 94 1006.0
20260509121947 52 224 3.0 7.0 0.00 0.00 0.00 95 1006.1
20260509121747 52 225 3.0 7.0 0.00 0.00 0.00 95 1006.0
20260509121547 52 222 2.0 7.0 0.00 0.00 0.00 95 1006.0
20260509121347 51 218 3.0 7.0 0.00 0.00 0.00 95 1006.1
20260509121146 51 206 2.0 7.0 0.00 0.00 0.00 95 1006.1
20260509120946 51 214 3.0 7.0 0.00 0.00 0.00 95 1006.0
20260509120746 51 229 3.0 7.0 0.00 0.00 0.00 95 1006.0
20260509120545 51 221 2.0 7.0 0.00 0.00 0.00 96 1006.1
20260509120345 51 217 2.0 7.0 0.00 0.00 0.00 96 1006.1
20260509120145 51 227 2.0 7.0 0.00 0.00 0.00 96 1006.1
20260509115944 51 235 1.0 7.0 0.00 0.00 0.00 96 1006.2
20260509115744 51 235 2.0 7.0 0.00 0.00 0.00 96 1006.1
20260509115544 50 239 2.0 7.0 0.00 0.00 0.00 96 1006.2
20260509115344 50 226 2.0 7.0 0.00 0.00 0.00 96 1006.2
20260509115143 50 230 3.0 7.0 0.00 0.00 0.00 96 1006.2
20260509114943 50 222 3.0 7.0 0.00 0.00 0.00 96 1006.1
20260509114743 50 222 2.0 7.0 0.00 0.00 0.00 96 1006.1
20260509114542 50 221 1.0 7.0 0.00 0.00 0.00 96 1006.2
20260509114342 50 229 2.0 8.0 0.00 0.00 0.00 96 1006.2
20260509114142 50 238 1.0 8.0 0.00 0.00 0.00 96 1006.2
20260509113941 50 227 1.0 8.0 0.00 0.00 0.00 96 1006.1
20260509113741 50 223 2.0 8.0 0.00 0.00 0.00 96 1006.2
20260509113541 50 229 1.0 8.0 0.00 0.00 0.00 96 1006.1
20260509113341 50 234 2.0 7.0 0.00 0.00 0.00 96 1006.2
20260509113140 50 225 2.0 7.0 0.00 0.00 0.00 96 1006.2
20260509112940 49 232 1.0 5.0 0.00 0.00 0.00 96 1006.2
20260509112740 49 243 1.0 7.0 0.00 0.00 0.00 96 1006.2
20260509112539 49 230 2.0 7.0 0.00 0.00 0.00 96 1006.2
20260509112339 49 223 2.0 7.0 0.00 0.00 0.00 96 1006.2
20260509112139 49 226 3.0 7.0 0.00 0.00 0.00 96 1006.2
20260509111938 49 222 3.0 7.0 0.00 0.00 0.00 96 1006.2
20260509111738 49 229 2.0 6.0 0.00 0.00 0.00 96 1006.2
20260509111538 49 228 1.0 7.0 0.00 0.00 0.00 96 1006.1
20260509111337 49 218 3.0 8.0 0.00 0.00 0.00 96 1006.1
20260509111137 49 211 2.0 9.0 0.00 0.00 0.00 96 1006.1
20260509110937 49 203 2.0 10.0 0.00 0.00 0.00 96 1006.1
20260509110737 49 194 3.0 10.0 0.00 0.00 0.00 96 1006.1
20260509110536 49 215 4.0 10.0 0.00 0.00 0.00 96 1006.0
20260509110336 49 206 3.0 10.0 0.00 0.00 0.00 96 1006.0
20260509110136 49 215 3.0 10.0 0.00 0.00 0.00 96 1006.0
20260509105935 49 210 4.0 10.0 0.00 0.02 0.00 96 1006.0
20260509105735 49 219 5.0 10.0 0.00 0.02 0.00 96 1005.9
20260509105535 48 204 3.0 8.0 0.00 0.02 0.00 96 1005.9
20260509105334 48 202 3.0 8.0 0.00 0.02 0.00 96 1006.0
20260509105134 48 210 3.0 9.0 0.00 0.02 0.00 96 1005.9
20260509104934 48 221 3.0 9.0 0.00 0.02 0.00 96 1005.9
20260509104734 48 225 4.0 9.0 0.00 0.02 0.00 96 1005.8
20260509104533 48 218 4.0 9.0 0.00 0.02 0.00 96 1005.9
20260509104333 48 222 4.0 9.0 0.00 0.02 0.00 96 1005.9
20260509104133 48 215 3.0 7.0 0.00 0.02 0.00 96 1005.9
20260509103932 48 218 2.0 7.0 0.00 0.02 0.00 96 1005.9
20260509103732 48 231 2.0 7.0 0.00 0.02 0.00 96 1005.9
20260509103532 48 225 3.0 7.0 0.00 0.02 0.00 96 1005.9
20260509103331 48 212 3.0 8.0 0.00 0.02 0.00 96 1005.9
20260509103131 48 222 3.0 8.0 0.00 0.02 0.00 96 1006.0
20260509102931 48 213 4.0 8.0 0.00 0.02 0.00 96 1006.0
20260509102731 48 217 4.0 8.0 0.00 0.02 0.00 96 1005.9
20260509102530 48 216 4.0 8.0 0.00 0.02 0.00 96 1006.0
20260509102330 48 217 3.0 8.0 0.00 0.02 0.00 96 1006.1
20260509102130 48 215 2.0 9.0 0.00 0.02 0.00 95 1006.1
20260509101929 48 224 3.0 9.0 0.00 0.02 0.00 95 1006.1
20260509101729 48 210 4.0 9.0 0.00 0.02 0.00 95 1006.2
20260509101529 48 211 4.0 9.0 0.00 0.02 0.00 95 1006.2
20260509101328 48 206 4.0 9.0 0.00 0.02 0.00 95 1006.1
20260509101128 48 212 3.0 9.0 0.00 0.02 0.00 95 1006.1
20260509100928 48 220 3.0 6.0 0.00 0.02 0.00 95 1006.1
20260509100728 48 215 3.0 9.0 0.00 0.02 0.00 95 1006.2
20260509100527 48 209 2.0 9.0 0.00 0.02 0.00 95 1006.2
20260509100327 48 235 2.0 9.0 0.00 0.02 0.00 95 1006.1
20260509100127 48 228 4.0 9.0 0.00 0.02 0.00 95 1006.1
20260509095926 48 222 4.0 9.0 0.00 0.04 0.00 95 1006.1
20260509095726 48 218 3.0 8.0 0.00 0.04 0.00 94 1006.2
20260509095526 48 211 4.0 9.0 0.00 0.04 0.00 94 1006.2
20260509095325 48 215 4.0 9.0 0.00 0.04 0.00 94 1006.3
20260509095125 48 209 5.0 9.0 0.00 0.04 0.00 94 1006.3
20260509094925 48 210 5.0 9.0 0.00 0.04 0.00 94 1006.3
20260509094725 48 207 4.0 9.0 0.00 0.04 0.00 94 1006.3
20260509094524 49 206 4.0 10.0 0.00 0.04 0.00 94 1006.3
20260509094324 48 210 3.0 15.0 0.00 0.04 0.00 94 1006.3
20260509094124 48 218 4.0 15.0 0.00 0.04 0.00 94 1006.3
20260509093923 48 222 5.0 15.0 0.00 0.04 0.00 94 1006.3
20260509093723 48 219 4.0 15.0 0.00 0.04 0.00 94 1006.3
20260509093523 48 213 5.0 15.0 0.00 0.04 0.00 94 1006.2
20260509093322 48 214 4.0 15.0 0.00 0.04 0.00 94 1006.2
20260509093122 48 203 5.0 11.0 0.00 0.04 0.00 94 1006.3
20260509092922 48 208 4.0 10.0 0.00 0.04 0.00 94 1006.2
20260509092722 48 206 4.0 10.0 0.00 0.04 0.00 94 1006.3
20260509092521 48 205 5.0 10.0 0.00 0.04 0.00 94 1006.2
20260509092321 48 212 5.0 11.0 0.00 0.04 0.00 94 1006.3
20260509092121 48 227 4.0 11.0 0.00 0.04 0.00 94 1006.2
20260509091920 48 219 3.0 11.0 0.00 0.04 0.00 94 1006.3
20260509091720 48 218 5.0 11.0 0.00 0.04 0.00 93 1006.2
20260509091520 48 217 5.0 11.0 0.00 0.04 0.00 93 1006.2
20260509091319 48 217 4.0 10.0 0.00 0.04 0.00 93 1006.2
20260509091119 48 213 5.0 10.0 0.00 0.04 0.00 93 1006.3
20260509090919 48 227 4.0 12.0 0.00 0.04 0.00 93 1006.2
20260509090719 48 218 4.0 13.0 0.00 0.04 0.00 93 1006.2
20260509090518 48 210 5.0 13.0 0.00 0.04 0.00 93 1006.3
20260509090318 48 204 6.0 13.0 0.00 0.04 0.00 93 1006.4
20260509090118 48 213 6.0 13.0 0.00 0.04 0.00 93 1006.4
20260509085917 48 222 5.0 12.0 0.00 0.05 0.00 92 1006.4
20260509085717 48 221 5.0 11.0 0.00 0.05 0.00 92 1006.3
20260509085517 48 203 5.0 11.0 0.00 0.05 0.00 92 1006.3
20260509085316 48 215 6.0 11.0 0.00 0.05 0.00 92 1006.4
20260509085116 48 214 5.0 11.0 0.00 0.05 0.00 91 1006.4
20260509084916 47 213 4.0 10.0 0.00 0.05 0.00 91 1006.3
20260509084716 47 210 4.0 15.0 0.00 0.05 0.00 90 1006.4
20260509084515 47 217 3.0 15.0 0.00 0.05 0.00 90 1006.4
20260509084315 47 211 4.0 15.0 0.00 0.05 0.00 90 1006.5
20260509084115 47 219 3.0 15.0 0.00 0.05 0.00 89 1006.6
20260509083914 47 220 4.0 15.0 0.00 0.05 0.00 89 1006.7
20260509083714 47 218 3.0 12.0 0.00 0.05 0.00 89 1006.7
20260509083514 47 209 5.0 12.0 0.00 0.05 0.00 89 1006.7
20260509083313 47 200 5.0 12.0 0.00 0.05 0.00 88 1006.8
20260509083113 47 211 5.0 12.0 0.00 0.05 0.00 88 1006.8
20260509082913 47 213 5.0 12.0 0.00 0.05 0.00 88 1006.7
20260509082713 47 203 4.0 11.0 0.00 0.05 0.00 88 1006.7
20260509082512 47 209 5.0 11.0 0.00 0.05 0.00 87 1006.7
20260509082312 47 221 5.0 11.0 0.00 0.05 0.00 87 1006.7
20260509082112 47 210 6.0 11.0 0.00 0.05 0.00 87 1006.7
20260509081911 47 199 6.0 11.0 0.00 0.05 0.00 87 1006.8
20260509081711 47 213 5.0 10.0 0.00 0.05 0.00 87 1006.7
20260509081511 47 215 4.0 10.0 0.00 0.05 0.00 86 1006.7
20260509081310 47 224 4.0 10.0 0.00 0.05 0.00 86 1006.8
20260509081110 47 212 3.0 10.0 0.00 0.05 0.00 86 1006.9
20260509080910 47 210 2.0 6.0 0.00 0.05 0.00 85 1006.9
20260509080710 47 229 2.0 10.0 0.00 0.05 0.00 84 1006.9
20260509080509 47 223 2.0 10.0 0.00 0.05 0.00 84 1006.9
20260509080309 47 202 1.0 10.0 0.00 0.05 0.00 83 1006.9
20260509080109 47 209 2.0 10.0 0.00 0.05 0.00 83 1006.9
20260509075908 47 224 3.0 10.0 0.00 0.05 0.00 82 1007.0
20260509075708 47 220 3.0 10.0 0.00 0.05 0.00 82 1007.0
20260509075508 47 193 2.0 7.0 0.00 0.05 0.00 82 1006.9
20260509075307 47 212 3.0 7.0 0.00 0.05 0.00 82 1006.9
20260509075107 47 201 3.0 7.0 0.00 0.05 0.00 82 1006.9
20260509074907 47 215 4.0 10.0 0.00 0.05 0.00 82 1006.9
20260509074706 47 213 4.0 10.0 0.00 0.05 0.00 82 1006.9
20260509074506 47 210 5.0 10.0 0.00 0.05 0.00 81 1006.9
20260509074306 47 215 5.0 10.0 0.00 0.05 0.00 81 1006.9
20260509074106 47 223 4.0 10.0 0.00 0.05 0.00 81 1006.9
20260509073905 47 213 4.0 10.0 0.00 0.05 0.00 80 1006.8
20260509073705 47 214 4.0 10.0 0.00 0.05 0.00 80 1006.8
20260509073505 47 214 4.0 12.0 0.00 0.05 0.00 79 1006.8
20260509073304 47 217 4.0 12.0 0.00 0.05 0.00 79 1006.8
20260509073104 47 210 4.0 12.0 0.00 0.05 0.00 79 1006.9
20260509072904 47 202 5.0 12.0 0.00 0.05 0.00 78 1006.9
20260509072703 47 215 5.0 12.0 0.00 0.05 0.00 78 1007.0
20260509072503 47 219 5.0 11.0 0.00 0.05 0.00 78 1006.9
20260509072306 47 221 5.0 9.0 0.00 0.05 0.00 78 1006.9
20260509072103 47 217 4.0 9.0 0.00 0.05 0.00 77 1006.9
20260509071902 47 214 4.0 8.0 0.00 0.05 0.00 77 1006.9
20260509071702 47 204 3.0 8.0 0.00 0.05 0.00 77 1006.9
20260509071502 47 213 4.0 8.0 0.00 0.05 0.00 76 1007.0
20260509071301 47 210 4.0 8.0 0.00 0.05 0.00 76 1007.0
20260509071101 47 212 4.0 7.0 0.00 0.05 0.00 76 1006.9
20260509070901 47 214 3.0 8.0 0.00 0.05 0.00 75 1006.9
20260509070700 47 220 3.0 8.0 0.00 0.05 0.00 75 1006.9
20260509070500 47 222 2.0 8.0 0.00 0.05 0.00 75 1006.9
20260509070300 47 227 3.0 8.0 0.00 0.05 0.00 74 1006.9
20260509070100 47 212 4.0 8.0 0.00 0.05 0.00 74 1006.9
20260509065859 47 208 4.0 8.0 0.00 0.05 0.00 73 1007.0
20260509065659 47 218 4.0 8.0 0.00 0.05 0.00 73 1006.9
20260509065459 47 209 3.0 12.0 0.00 0.05 0.00 72 1006.9
20260509065258 47 220 3.0 12.0 0.00 0.05 0.00 72 1006.9
20260509065058 47 222 4.0 12.0 0.00 0.05 0.00 71 1007.0
20260509064858 47 226 4.0 12.0 0.00 0.05 0.00 71 1006.9
20260509064657 47 213 4.0 12.0 0.00 0.05 0.00 71 1007.0
20260509064457 47 217 4.0 12.0 0.00 0.05 0.00 71 1007.0
20260509064257 47 227 3.0 9.0 0.00 0.05 0.00 71 1007.0
20260509064057 47 229 2.0 9.0 0.00 0.05 0.00 70 1007.0
20260509063856 47 229 2.0 6.0 0.00 0.05 0.00 70 1007.0
20260509063656 47 235 2.0 4.0 0.00 0.05 0.00 70 1007.1
20260509063456 47 233 1.0 3.0 0.00 0.05 0.00 70 1007.1
20260509063255 47 234 1.0 6.0 0.00 0.05 0.00 69 1007.1
20260509063055 47 234 0.0 7.0 0.00 0.05 0.00 69 1007.1
20260509062855 47 234 0.0 7.0 0.00 0.05 0.00 69 1007.1
20260509062654 47 231 2.0 7.0 0.00 0.05 0.00 68 1007.2
20260509062454 47 225 2.0 7.0 0.00 0.05 0.00 68 1007.1
20260509062254 47 223 1.0 7.0 0.00 0.05 0.00 68 1007.2
20260509062054 47 215 0.0 3.0 0.00 0.05 0.00 68 1007.2
20260509061853 47 215 0.0 3.0 0.00 0.05 0.00 68 1007.2
20260509061653 47 215 0.0 4.0 0.00 0.05 0.00 68 1007.3
20260509061453 47 217 1.0 5.0 0.00 0.05 0.00 68 1007.3
20260509061252 47 222 0.0 5.0 0.00 0.05 0.00 68 1007.4
20260509061052 48 228 0.0 5.0 0.00 0.05 0.00 68 1007.5
20260509060852 48 229 2.0 6.0 0.00 0.05 0.00 68 1007.4
20260509060651 48 235 1.0 6.0 0.00 0.05 0.00 68 1007.5
20260509060451 48 237 1.0 6.0 0.00 0.05 0.00 67 1007.6
20260509060251 48 229 2.0 6.0 0.00 0.05 0.00 67 1007.7
20260509060051 48 218 1.0 5.0 0.00 0.05 0.00 67 1007.7
20260509055850 48 214 2.0 7.0 0.00 0.05 0.00 67 1007.8
20260509055650 48 219 2.0 7.0 0.00 0.05 0.00 67 1007.8
20260509055450 48 213 2.0 7.0 0.00 0.05 0.00 67 1007.8
20260509055249 48 218 2.0 7.0 0.00 0.05 0.00 67 1007.9
20260509055049 48 222 3.0 7.0 0.00 0.05 0.00 67 1007.9
20260509054849 48 212 2.0 7.0 0.00 0.05 0.00 67 1007.9
20260509054648 48 216 2.0 9.0 0.00 0.05 0.00 67 1007.9
20260509054448 48 231 2.0 9.0 0.00 0.05 0.00 67 1007.9
20260509054248 48 231 2.0 9.0 0.00 0.05 0.00 67 1008.0
20260509054048 48 227 3.0 9.0 0.00 0.05 0.00 67 1008.0
20260509053847 47 222 2.0 9.0 0.00 0.05 0.00 68 1008.1
20260509053647 47 222 2.0 6.0 0.00 0.05 0.00 68 1008.1
20260509053447 47 220 2.0 6.0 0.00 0.05 0.00 68 1008.2
20260509053246 47 220 3.0 6.0 0.00 0.05 0.00 68 1008.2
20260509053046 47 215 2.0 7.0 0.00 0.05 0.00 68 1008.2
20260509052846 47 223 2.0 8.0 0.00 0.05 0.00 68 1008.2
20260509052645 47 221 2.0 8.0 0.00 0.05 0.00 68 1008.2
20260509052445 47 217 3.0 8.0 0.00 0.05 0.00 69 1008.2
20260509052245 47 220 3.0 8.0 0.00 0.05 0.00 69 1008.3
20260509052045 47 211 3.0 8.0 0.00 0.05 0.00 69 1008.2
20260509051844 47 221 3.0 8.0 0.00 0.05 0.00 70 1008.3
20260509051644 46 220 3.0 8.0 0.00 0.05 0.00 70 1008.3
20260509051444 46 214 4.0 8.0 0.00 0.05 0.00 70 1008.3
20260509051243 46 225 3.0 8.0 0.00 0.05 0.00 71 1008.3
20260509051043 46 211 2.0 8.0 0.00 0.05 0.00 71 1008.4
20260509050843 46 219 2.0 8.0 0.00 0.05 0.00 72 1008.4
20260509050642 46 222 3.0 8.0 0.00 0.05 0.00 72 1008.4
20260509050442 46 217 4.0 8.0 0.00 0.05 0.00 72 1008.4
20260509050242 46 226 3.0 6.0 0.00 0.05 0.00 73 1008.4
20260509050041 46 221 3.0 6.0 0.00 0.05 0.00 73 1008.5
20260509045841 46 224 2.0 10.0 0.00 0.05 0.00 73 1008.4
20260509045641 46 229 2.0 10.0 0.00 0.05 0.00 74 1008.4
20260509045441 46 215 2.0 10.0 0.00 0.05 0.00 74 1008.5
20260509045240 46 205 4.0 10.0 0.00 0.05 0.00 74 1008.5
20260509045040 45 220 3.0 10.0 0.00 0.05 0.00 74 1008.4
20260509044840 45 222 3.0 7.0 0.00 0.05 0.00 75 1008.5
20260509044639 45 215 3.0 6.0 0.00 0.05 0.00 75 1008.4
20260509044439 45 217 3.0 6.0 0.00 0.05 0.00 75 1008.5
20260509044239 45 215 4.0 6.0 0.00 0.05 0.00 75 1008.5
20260509044039 45 216 3.0 6.0 0.00 0.05 0.00 76 1008.5
20260509043838 45 207 3.0 6.0 0.00 0.05 0.00 76 1008.5
20260509043638 45 209 3.0 6.0 0.00 0.05 0.00 76 1008.6
20260509043438 45 215 2.0 8.0 0.00 0.05 0.00 76 1008.6
20260509043237 45 234 1.0 9.0 0.00 0.05 0.00 77 1008.6
20260509043037 45 225 3.0 10.0 0.00 0.05 0.00 77 1008.6
20260509042837 45 218 3.0 10.0 0.00 0.05 0.00 77 1008.6
20260509042636 45 219 3.0 10.0 0.00 0.05 0.00 77 1008.5
20260509042436 45 211 4.0 10.0 0.00 0.05 0.00 77 1008.6
20260509042236 45 224 3.0 8.0 0.00 0.05 0.00 77 1008.7
20260509042035 45 214 3.0 9.0 0.00 0.05 0.00 78 1008.6
20260509041835 45 211 4.0 9.0 0.00 0.05 0.00 78 1008.7
20260509041635 45 220 3.0 9.0 0.00 0.05 0.00 78 1008.7
20260509041435 45 220 3.0 9.0 0.00 0.05 0.00 78 1008.7
20260509041234 45 214 4.0 9.0 0.00 0.05 0.00 78 1008.7
20260509041034 45 216 4.0 9.0 0.00 0.05 0.00 78 1008.8
20260509040834 45 213 4.0 9.0 0.00 0.05 0.00 79 1008.8
20260509040633 45 221 3.0 9.0 0.00 0.05 0.00 79 1008.7
20260509040433 45 225 3.0 11.0 0.00 0.05 0.00 79 1008.8
20260509040233 45 224 4.0 11.0 0.00 0.05 0.00 78 1008.8
20260509040032 45 210 5.0 11.0 0.00 0.05 0.00 79 1008.7
20260509035832 45 218 4.0 11.0 0.00 0.05 0.05 78 1008.8
20260509035632 45 216 4.0 11.0 0.00 0.05 0.05 78 1008.8
20260509035432 45 216 4.0 7.0 0.00 0.05 0.05 79 1008.7
20260509035231 45 225 3.0 6.0 0.00 0.05 0.05 79 1008.7
20260509035031 46 223 1.0 6.0 0.00 0.05 0.05 79 1008.8
20260509034831 46 225 2.0 5.0 0.00 0.05 0.05 79 1008.8
20260509034630 46 228 2.0 5.0 0.00 0.05 0.05 79 1008.8
20260509034430 46 238 1.0 5.0 0.00 0.05 0.05 78 1008.7
20260509034230 46 232 2.0 5.0 0.00 0.05 0.05 78 1008.8
20260509034029 46 226 2.0 5.0 0.00 0.05 0.05 78 1008.8
20260509033829 46 226 1.0 5.0 0.00 0.05 0.05 78 1008.8
20260509033629 46 228 1.0 5.0 0.00 0.05 0.05 78 1008.9
20260509033429 46 233 0.0 5.0 0.00 0.05 0.05 78 1008.9
20260509033228 46 231 1.0 5.0 0.00 0.05 0.05 78 1008.8
20260509033028 46 217 1.0 5.0 0.00 0.05 0.05 78 1008.9
20260509032828 46 199 1.0 5.0 0.00 0.05 0.05 78 1008.8
20260509032627 46 223 2.0 5.0 0.00 0.05 0.05 78 1008.9
20260509032427 46 227 2.0 5.0 0.00 0.05 0.05 78 1008.9
20260509032227 46 221 1.0 9.0 0.00 0.05 0.05 77 1008.9
20260509032026 46 225 1.0 10.0 0.00 0.05 0.05 77 1009.0
20260509031826 46 220 2.0 10.0 0.00 0.05 0.05 77 1009.0
20260509031626 46 222 3.0 10.0 0.00 0.05 0.05 77 1009.1
20260509031426 47 220 3.0 10.0 0.00 0.05 0.05 77 1009.1
20260509031225 47 218 2.0 10.0 0.00 0.05 0.05 76 1009.1
20260509031025 47 217 3.0 8.0 0.00 0.05 0.05 76 1009.1
20260509030825 47 219 4.0 8.0 0.00 0.05 0.05 76 1009.2
20260509030624 47 215 3.0 6.0 0.00 0.05 0.05 76 1009.1
20260509030424 47 216 2.0 6.0 0.00 0.05 0.05 76 1009.2
20260509030224 47 224 2.0 6.0 0.00 0.05 0.05 76 1009.3
20260509030023 47 228 1.0 6.0 0.00 0.05 0.05 76 1009.2
20260509025823 47 219 2.0 7.0 0.00 0.05 0.05 76 1009.2
20260509025623 47 218 2.0 7.0 0.00 0.05 0.05 76 1009.2
20260509025423 47 215 2.0 7.0 0.00 0.05 0.05 76 1009.3
20260509025222 47 226 3.0 7.0 0.00 0.05 0.05 76 1009.2
20260509025022 47 223 3.0 6.0 0.00 0.05 0.05 76 1009.3
20260509024822 47 220 2.0 7.0 0.00 0.05 0.05 75 1009.3
20260509024621 47 226 2.0 7.0 0.00 0.05 0.05 75 1009.3
20260509024421 47 211 3.0 7.0 0.00 0.05 0.05 75 1009.3
20260509024221 47 211 3.0 8.0 0.00 0.05 0.05 75 1009.4
20260509024020 47 219 3.0 8.0 0.00 0.05 0.05 75 1009.4
20260509023820 47 219 2.0 8.0 0.00 0.05 0.05 75 1009.4
20260509023620 47 221 3.0 8.0 0.00 0.05 0.05 75 1009.4
20260509023420 47 217 3.0 8.0 0.00 0.05 0.05 75 1009.4
20260509023219 47 218 2.0 6.0 0.00 0.05 0.05 75 1009.4
20260509023019 47 219 3.0 6.0 0.00 0.05 0.05 75 1009.5
20260509022819 47 219 3.0 6.0 0.00 0.05 0.05 75 1009.5
20260509022618 47 218 2.0 6.0 0.00 0.05 0.05 74 1009.4
20260509022418 47 204 2.0 6.0 0.00 0.05 0.05 74 1009.5
20260509022218 47 203 2.0 7.0 0.00 0.05 0.05 74 1009.5
20260509022017 47 229 2.0 7.0 0.00 0.05 0.05 74 1009.6
20260509021817 47 218 2.0 7.0 0.00 0.05 0.05 74 1009.5
20260509021617 48 218 3.0 7.0 0.00 0.05 0.05 74 1009.5
20260509021417 47 216 3.0 7.0 0.00 0.05 0.05 74 1009.5
20260509021216 47 218 3.0 7.0 0.00 0.05 0.05 74 1009.5
20260509021016 47 215 4.0 7.0 0.00 0.05 0.05 74 1009.5